Time,TemperatureF,DewpointF,PressureIn,WindDirection,WindDirectionDegrees,WindSpeedMPH,WindSpeedGustMPH,Humidity,HourlyPrecipIn,Conditions,Clouds,dailyrainin,SoftwareType,DateUTC
2013-03-17 00:03:00,53.1,50.8,29.94,SE,140,2.0,2.0,92,0.00,,,0.00,Wunderground v.1.15,2013-03-17 07:03:00,
2013-03-17 00:13:00,53.1,51.1,29.94,South,174,1.0,1.0,93,0.00,,,0.00,Wunderground v.1.15,2013-03-17 07:13:00,
2013-03-17 00:24:00,53.2,51.2,29.94,SSE,147,0.0,0.0,93,0.00,,,0.00,Wunderground v.1.15,2013-03-17 07:24:00,
2013-03-17 00:34:00,53.3,51.3,29.94,SE,138,1.0,1.0,93,0.00,,,0.00,Wunderground v.1.15,2013-03-17 07:34:00,
2013-03-17 00:43:00,53.2,50.9,29.93,SE,137,2.0,2.0,92,0.00,,,0.00,Wunderground v.1.15,2013-03-17 07:43:00,
2013-03-17 00:53:00,53.2,50.9,29.93,South,185,1.0,1.0,92,0.00,,,0.00,Wunderground v.1.15,2013-03-17 07:53:00,
2013-03-17 01:04:00,53.2,50.9,29.94,SE,134,2.0,2.0,92,0.00,,,0.00,Wunderground v.1.15,2013-03-17 08:04:00,
2013-03-17 01:14:00,53.2,50.9,29.94,South,186,0.0,0.0,92,0.00,,,0.00,Wunderground v.1.15,2013-03-17 08:14:00,
2013-03-17 01:24:00,53.3,51.0,29.94,South,181,1.0,1.0,92,0.00,,,0.00,Wunderground v.1.15,2013-03-17 08:24:00,
2013-03-17 01:34:00,53.3,51.0,29.95,South,184,1.0,3.0,92,0.00,,,0.00,Wunderground v.1.15,2013-03-17 08:34:00,
2013-03-17 01:44:00,53.3,51.0,29.95,SSW,206,1.0,1.0,92,0.00,,,0.00,Wunderground v.1.15,2013-03-17 08:44:00,
2013-03-17 01:54:00,53.3,50.7,29.95,SSE,161,0.0,0.0,91,0.00,,,0.00,Wunderground v.1.15,2013-03-17 08:54:00,
2013-03-17 02:04:00,53.3,50.7,29.95,SSE,149,0.0,0.0,91,0.00,,,0.00,Wunderground v.1.15,2013-03-17 09:04:00,
2013-03-17 02:14:00,53.2,50.6,29.95,SSE,150,2.0,2.0,91,0.00,,,0.00,Wunderground v.1.15,2013-03-17 09:14:00,
2013-03-17 02:24:00,53.2,50.6,29.95,SSW,194,1.0,1.0,91,0.00,,,0.00,Wunderground v.1.15,2013-03-17 09:24:00,
2013-03-17 02:34:00,53.2,50.6,29.95,SSW,192,0.0,0.0,91,0.00,,,0.00,Wunderground v.1.15,2013-03-17 09:34:00,
2013-03-17 02:44:00,53.2,50.6,29.95,South,187,2.0,2.0,91,0.00,,,0.00,Wunderground v.1.15,2013-03-17 09:44:00,
2013-03-17 02:54:00,53.2,50.6,29.95,South,170,0.0,0.0,91,0.00,,,0.00,Wunderground v.1.15,2013-03-17 09:54:00,
2013-03-17 03:04:00,53.2,50.6,29.95,SSE,159,0.0,0.0,91,0.00,,,0.00,Wunderground v.1.15,2013-03-17 10:04:00,
2013-03-17 03:14:00,53.2,50.6,29.95,SW,229,0.0,3.0,91,0.00,,,0.00,Wunderground v.1.15,2013-03-17 10:14:00,
2013-03-17 03:24:00,53.2,50.6,29.94,ESE,109,0.0,0.0,91,0.00,,,0.00,Wunderground v.1.15,2013-03-17 10:24:00,
2013-03-17 03:34:00,53.2,50.6,29.94,SSW,194,0.0,0.0,91,0.00,,,0.00,Wunderground v.1.15,2013-03-17 10:34:00,
2013-03-17 03:44:00,53.2,50.6,29.94,SE,146,0.0,0.0,91,0.00,,,0.00,Wunderground v.1.15,2013-03-17 10:44:00,
2013-03-17 03:54:00,53.2,50.6,29.93,SE,126,0.0,0.0,91,0.00,,,0.00,Wunderground v.1.15,2013-03-17 10:54:00,
2013-03-17 04:04:00,53.2,50.6,29.93,ESE,121,0.0,0.0,91,0.00,,,0.00,Wunderground v.1.15,2013-03-17 11:04:00,
2013-03-17 04:14:00,53.2,50.6,29.93,SSE,153,0.0,0.0,91,0.00,,,0.00,Wunderground v.1.15,2013-03-17 11:14:00,
2013-03-17 04:24:00,53.3,50.7,29.93,South,175,0.0,0.0,91,0.00,,,0.00,Wunderground v.1.15,2013-03-17 11:24:00,
2013-03-17 04:34:00,53.3,50.7,29.93,SSE,156,0.0,0.0,91,0.00,,,0.00,Wunderground v.1.15,2013-03-17 11:34:00,
2013-03-17 04:44:00,53.3,50.7,29.93,South,180,0.0,0.0,91,0.00,,,0.00,Wunderground v.1.15,2013-03-17 11:44:00,
2013-03-17 04:54:00,53.2,50.6,29.92,SSE,168,1.0,1.0,91,0.00,,,0.00,Wunderground v.1.15,2013-03-17 11:54:00,
2013-03-17 05:04:00,53.2,50.6,29.93,SSW,206,0.0,0.0,91,0.00,,,0.00,Wunderground v.1.15,2013-03-17 12:04:00,
2013-03-17 05:14:00,53.2,50.6,29.93,South,181,0.0,0.0,91,0.00,,,0.00,Wunderground v.1.15,2013-03-17 12:14:00,
2013-03-17 05:24:00,53.2,50.6,29.94,South,180,0.0,0.0,91,0.00,,,0.00,Wunderground v.1.15,2013-03-17 12:24:00,
2013-03-17 05:34:00,53.2,50.6,29.94,SSE,158,0.0,0.0,91,0.00,,,0.00,Wunderground v.1.15,2013-03-17 12:34:00,
2013-03-17 05:44:00,53.3,50.7,29.94,SSW,192,0.0,2.0,91,0.00,,,0.00,Wunderground v.1.15,2013-03-17 12:44:00,
2013-03-17 05:54:00,53.3,50.4,29.94,SSW,212,2.0,2.0,90,0.00,,,0.00,Wunderground v.1.15,2013-03-17 12:54:00,
2013-03-17 06:04:00,53.2,50.3,29.95,SE,129,0.0,0.0,90,0.00,,,0.00,Wunderground v.1.15,2013-03-17 13:04:00,
2013-03-17 06:14:00,53.3,50.4,29.95,SE,129,0.0,0.0,90,0.00,,,0.00,Wunderground v.1.15,2013-03-17 13:14:00,
2013-03-17 06:24:00,53.3,50.4,29.94,SE,142,0.0,0.0,90,0.00,,,0.00,Wunderground v.1.15,2013-03-17 13:24:00,
2013-03-17 06:34:00,53.4,50.5,29.94,SE,142,0.0,0.0,90,0.00,,,0.00,Wunderground v.1.15,2013-03-17 13:34:00,
2013-03-17 06:44:00,53.4,50.5,29.95,ESE,123,0.0,1.0,90,0.00,,,0.00,Wunderground v.1.15,2013-03-17 13:44:00,
2013-03-17 06:54:00,53.3,50.1,29.96,South,187,1.0,3.0,89,0.00,,,0.00,Wunderground v.1.15,2013-03-17 13:54:00,
2013-03-17 07:04:00,53.3,50.1,29.96,South,187,0.0,0.0,89,0.00,,,0.00,Wunderground v.1.15,2013-03-17 14:04:00,
2013-03-17 07:14:00,53.3,50.1,29.96,South,186,0.0,0.0,89,0.00,,,0.00,Wunderground v.1.15,2013-03-17 14:14:00,
2013-03-17 07:24:00,53.3,50.1,29.96,South,186,0.0,0.0,89,0.00,,,0.00,Wunderground v.1.15,2013-03-17 14:24:00,
2013-03-17 07:34:00,53.4,50.2,29.96,South,186,0.0,0.0,89,0.00,,,0.00,Wunderground v.1.15,2013-03-17 14:34:00,
2013-03-17 07:44:00,53.4,50.2,29.96,South,186,0.0,0.0,89,0.00,,,0.00,Wunderground v.1.15,2013-03-17 14:44:00,
2013-03-17 07:54:00,53.5,50.3,29.96,South,186,0.0,0.0,89,0.00,,,0.00,Wunderground v.1.15,2013-03-17 14:54:00,
2013-03-17 08:04:00,53.7,50.5,29.96,South,186,0.0,0.0,89,0.00,,,0.00,Wunderground v.1.15,2013-03-17 15:04:00,
2013-03-17 08:14:00,53.9,50.4,29.97,NNE,13,0.0,0.0,88,0.00,,,0.00,Wunderground v.1.15,2013-03-17 15:14:00,
2013-03-17 08:24:00,54.0,50.5,29.97,NNE,13,0.0,0.0,88,0.00,,,0.00,Wunderground v.1.15,2013-03-17 15:24:00,
2013-03-17 08:34:00,54.2,50.4,29.98,NNE,13,0.0,0.0,87,0.00,,,0.00,Wunderground v.1.15,2013-03-17 15:34:00,
2013-03-17 08:44:00,54.4,50.6,29.98,NNE,20,0.0,0.0,87,0.00,,,0.00,Wunderground v.1.15,2013-03-17 15:44:00,
2013-03-17 08:54:00,54.6,50.8,29.98,NE,55,0.0,0.0,87,0.00,,,0.00,Wunderground v.1.15,2013-03-17 15:54:00,
2013-03-17 09:04:00,55.0,50.9,29.98,ESE,111,0.0,0.0,86,0.00,,,0.00,Wunderground v.1.15,2013-03-17 16:04:00,
2013-03-17 09:14:00,55.2,50.8,29.98,ENE,59,1.0,3.0,85,0.00,,,0.00,Wunderground v.1.15,2013-03-17 16:14:00,
2013-03-17 09:24:00,55.3,51.2,29.99,ESE,107,1.0,1.0,86,0.00,,,0.00,Wunderground v.1.15,2013-03-17 16:24:00,
2013-03-17 09:34:00,56.2,51.1,29.98,SE,132,1.0,1.0,83,0.00,,,0.00,Wunderground v.1.15,2013-03-17 16:34:00,
2013-03-17 09:44:00,56.7,51.3,29.98,South,188,0.0,0.0,82,0.00,,,0.00,Wunderground v.1.15,2013-03-17 16:44:00,
2013-03-17 09:54:00,57.5,51.4,29.98,South,187,1.0,2.0,80,0.00,,,0.00,Wunderground v.1.15,2013-03-17 16:54:00,
2013-03-17 10:04:00,57.7,51.9,29.98,South,176,2.0,5.0,81,0.00,,,0.00,Wunderground v.1.15,2013-03-17 17:04:00,
2013-03-17 10:14:00,57.4,51.6,29.98,South,186,3.0,3.0,81,0.00,,,0.00,Wunderground v.1.15,2013-03-17 17:14:00,
2013-03-17 10:24:00,57.3,51.5,29.98,SW,231,2.0,2.0,81,0.00,,,0.00,Wunderground v.1.15,2013-03-17 17:24:00,
2013-03-17 10:34:00,58.1,51.6,29.99,South,180,1.0,1.0,79,0.00,,,0.00,Wunderground v.1.15,2013-03-17 17:34:00,
2013-03-17 10:44:00,57.6,51.5,29.98,South,179,2.0,6.0,80,0.00,,,0.00,Wunderground v.1.15,2013-03-17 17:44:00,
2013-03-17 10:54:00,57.3,51.2,29.98,SW,216,2.0,4.0,80,0.00,,,0.00,Wunderground v.1.15,2013-03-17 17:54:00,
2013-03-17 11:04:00,57.6,51.5,29.99,South,173,3.0,3.0,80,0.00,,,0.00,Wunderground v.1.15,2013-03-17 18:04:00,
2013-03-17 11:14:00,57.8,51.3,29.99,SW,229,2.0,4.0,79,0.00,,,0.00,Wunderground v.1.15,2013-03-17 18:14:00,
2013-03-17 11:24:00,57.9,51.4,29.99,NW,313,3.0,5.0,79,0.00,,,0.00,Wunderground v.1.15,2013-03-17 18:24:00,
2013-03-17 11:34:00,57.8,51.3,29.99,West,280,4.0,4.0,79,0.00,,,0.00,Wunderground v.1.15,2013-03-17 18:34:00,
2013-03-17 11:44:00,57.4,50.9,29.99,WNW,288,5.0,5.0,79,0.00,,,0.00,Wunderground v.1.15,2013-03-17 18:44:00,
2013-03-17 11:54:00,57.8,51.7,29.99,West,263,4.0,6.0,80,0.00,,,0.00,Wunderground v.1.15,2013-03-17 18:54:00,
2013-03-17 12:04:00,58.2,51.7,29.99,West,261,3.0,3.0,79,0.00,,,0.00,Wunderground v.1.15,2013-03-17 19:04:00,
2013-03-17 12:14:00,57.8,51.3,29.99,NW,319,4.0,4.0,79,0.00,,,0.00,Wunderground v.1.15,2013-03-17 19:14:00,
2013-03-17 12:24:00,58.0,52.2,29.99,NW,304,4.0,5.0,81,0.00,,,0.00,Wunderground v.1.15,2013-03-17 19:24:00,
2013-03-17 12:34:00,57.8,52.0,29.99,NW,317,4.0,4.0,81,0.00,,,0.00,Wunderground v.1.15,2013-03-17 19:34:00,
2013-03-17 12:44:00,58.3,52.2,29.98,West,281,2.0,4.0,80,0.00,,,0.00,Wunderground v.1.15,2013-03-17 19:44:00,
2013-03-17 12:54:00,58.4,52.3,29.98,WSW,244,2.0,3.0,80,0.00,,,0.00,Wunderground v.1.15,2013-03-17 19:54:00,
2013-03-17 13:04:00,58.2,52.4,29.98,West,263,3.0,3.0,81,0.00,,,0.00,Wunderground v.1.15,2013-03-17 20:04:00,
2013-03-17 13:14:00,57.7,51.9,29.98,West,280,4.0,4.0,81,0.00,,,0.00,Wunderground v.1.15,2013-03-17 20:14:00,
2013-03-17 13:24:00,58.7,52.5,29.97,SW,230,3.0,10.0,80,0.00,,,0.00,Wunderground v.1.15,2013-03-17 20:24:00,
2013-03-17 13:34:00,58.4,52.6,29.97,WSW,251,4.0,4.0,81,0.00,,,0.00,Wunderground v.1.15,2013-03-17 20:34:00,
2013-03-17 13:44:00,57.7,51.9,29.97,West,265,4.0,4.0,81,0.00,,,0.00,Wunderground v.1.15,2013-03-17 20:44:00,
2013-03-17 13:54:00,58.2,52.1,29.96,NW,304,4.0,7.0,80,0.00,,,0.00,Wunderground v.1.15,2013-03-17 20:54:00,
2013-03-17 14:04:00,59.0,52.5,29.96,SW,225,2.0,2.0,79,0.00,,,0.00,Wunderground v.1.15,2013-03-17 21:04:00,
2013-03-17 14:14:00,58.9,52.7,29.95,West,265,2.0,2.0,80,0.00,,,0.00,Wunderground v.1.15,2013-03-17 21:14:00,
2013-03-17 14:24:00,58.4,51.9,29.95,WSW,251,3.0,3.0,79,0.00,,,0.00,Wunderground v.1.15,2013-03-17 21:24:00,
2013-03-17 14:34:00,58.9,52.1,29.94,SW,229,2.0,2.0,78,0.00,,,0.00,Wunderground v.1.15,2013-03-17 21:34:00,
2013-03-17 14:44:00,58.9,52.1,29.94,WNW,284,2.0,2.0,78,0.00,,,0.00,Wunderground v.1.15,2013-03-17 21:44:00,
2013-03-17 14:54:00,59.3,52.8,29.94,WNW,300,1.0,1.0,79,0.00,,,0.00,Wunderground v.1.15,2013-03-17 21:54:00,
2013-03-17 15:04:00,59.5,53.0,29.94,West,273,3.0,5.0,79,0.00,,,0.00,Wunderground v.1.15,2013-03-17 22:04:00,
2013-03-17 15:14:00,59.5,52.6,29.93,West,270,2.0,2.0,78,0.00,,,0.00,Wunderground v.1.15,2013-03-17 22:14:00,
2013-03-17 15:24:00,59.5,53.0,29.93,SW,225,2.0,2.0,79,0.00,,,0.00,Wunderground v.1.15,2013-03-17 22:24:00,
2013-03-17 15:34:00,60.1,53.2,29.93,WNW,288,1.0,1.0,78,0.00,,,0.00,Wunderground v.1.15,2013-03-17 22:34:00,
2013-03-17 15:44:00,59.5,53.0,29.93,NW,312,3.0,3.0,79,0.00,,,0.00,Wunderground v.1.15,2013-03-17 22:44:00,
2013-03-17 15:54:00,59.6,53.1,29.93,SSW,210,2.0,2.0,79,0.00,,,0.00,Wunderground v.1.15,2013-03-17 22:54:00,
2013-03-17 16:04:00,59.3,52.8,29.93,WNW,282,2.0,5.0,79,0.00,,,0.00,Wunderground v.1.15,2013-03-17 23:04:00,
2013-03-17 16:14:00,59.1,52.6,29.94,WNW,286,2.0,2.0,79,0.00,,,0.00,Wunderground v.1.15,2013-03-17 23:14:00,
2013-03-17 16:24:00,58.9,53.1,29.94,West,259,3.0,3.0,81,0.00,,,0.00,Wunderground v.1.15,2013-03-17 23:24:00,
2013-03-17 16:34:00,59.5,53.0,29.94,WSW,254,2.0,2.0,79,0.00,,,0.00,Wunderground v.1.15,2013-03-17 23:34:00,
2013-03-17 16:44:00,59.5,53.0,29.94,SW,235,1.0,1.0,79,0.00,,,0.00,Wunderground v.1.15,2013-03-17 23:44:00,
2013-03-17 16:54:00,59.4,52.5,29.95,SW,222,1.0,1.0,78,0.00,,,0.00,Wunderground v.1.15,2013-03-17 23:54:00,
2013-03-17 17:04:00,59.2,52.7,29.95,SW,219,2.0,2.0,79,0.00,,,0.00,Wunderground v.1.15,2013-03-18 00:04:00,
2013-03-17 17:14:00,59.1,52.6,29.94,SSW,201,1.0,1.0,79,0.00,,,0.00,Wunderground v.1.15,2013-03-18 00:14:00,
2013-03-17 17:24:00,59.3,52.8,29.94,SW,221,1.0,1.0,79,0.00,,,0.00,Wunderground v.1.15,2013-03-18 00:24:00,
2013-03-17 17:34:00,59.4,52.9,29.94,West,259,1.0,1.0,79,0.00,,,0.00,Wunderground v.1.15,2013-03-18 00:34:00,
2013-03-17 17:44:00,59.3,53.1,29.95,West,264,0.0,0.0,80,0.00,,,0.00,Wunderground v.1.15,2013-03-18 00:44:00,
2013-03-17 17:54:00,58.6,52.8,29.94,WSW,242,1.0,1.0,81,0.00,,,0.00,Wunderground v.1.15,2013-03-18 00:54:00,
2013-03-17 18:04:00,57.9,52.8,29.94,SSE,163,1.0,1.0,83,0.00,,,0.00,Wunderground v.1.15,2013-03-18 01:04:00,
2013-03-17 18:14:00,57.3,52.8,29.94,SSW,211,1.0,1.0,85,0.00,,,0.00,Wunderground v.1.15,2013-03-18 01:14:00,
2013-03-17 18:24:00,57.0,52.9,29.94,South,178,0.0,0.0,86,0.00,,,0.00,Wunderground v.1.15,2013-03-18 01:24:00,
2013-03-17 18:34:00,56.9,52.8,29.95,South,184,1.0,5.0,86,0.00,,,0.00,Wunderground v.1.15,2013-03-18 01:34:00,
2013-03-17 18:44:00,56.6,52.5,29.95,South,183,1.0,1.0,86,0.00,,,0.00,Wunderground v.1.15,2013-03-18 01:44:00,
2013-03-17 18:54:00,56.4,52.6,29.95,SSW,198,1.0,1.0,87,0.00,,,0.00,Wunderground v.1.15,2013-03-18 01:54:00,
2013-03-17 19:04:00,56.3,52.5,29.96,South,190,1.0,6.0,87,0.00,,,0.00,Wunderground v.1.15,2013-03-18 02:04:00,
2013-03-17 19:14:00,56.3,52.5,29.96,South,188,1.0,7.0,87,0.00,,,0.00,Wunderground v.1.15,2013-03-18 02:14:00,
2013-03-17 19:24:00,56.3,52.5,29.96,SW,223,1.0,3.0,87,0.00,,,0.00,Wunderground v.1.15,2013-03-18 02:24:00,
2013-03-17 19:34:00,56.2,52.4,29.97,SW,227,0.0,0.0,87,0.00,,,0.00,Wunderground v.1.15,2013-03-18 02:34:00,
2013-03-17 19:44:00,56.1,52.3,29.96,SSE,150,1.0,1.0,87,0.00,,,0.00,Wunderground v.1.15,2013-03-18 02:44:00,
2013-03-17 19:54:00,56.2,52.4,29.96,South,181,0.0,0.0,87,0.00,,,0.00,Wunderground v.1.15,2013-03-18 02:54:00,
2013-03-17 20:04:00,56.2,52.4,29.96,SW,214,1.0,1.0,87,0.00,,,0.00,Wunderground v.1.15,2013-03-18 03:04:00,
2013-03-17 20:14:00,56.1,52.3,29.96,SW,217,1.0,1.0,87,0.00,,,0.00,Wunderground v.1.15,2013-03-18 03:14:00,
2013-03-17 20:24:00,56.0,52.2,29.96,SE,132,0.0,0.0,87,0.00,,,0.00,Wunderground v.1.15,2013-03-18 03:24:00,
2013-03-17 20:34:00,56.0,52.2,29.96,South,182,1.0,1.0,87,0.00,,,0.00,Wunderground v.1.15,2013-03-18 03:34:00,
2013-03-17 20:44:00,56.0,52.2,29.96,South,187,0.0,0.0,87,0.00,,,0.00,Wunderground v.1.15,2013-03-18 03:44:00,
2013-03-17 20:54:00,56.0,52.2,29.96,SSE,163,0.0,0.0,87,0.00,,,0.00,Wunderground v.1.15,2013-03-18 03:54:00,
2013-03-17 21:04:00,56.0,52.2,29.96,South,185,0.0,0.0,87,0.00,,,0.00,Wunderground v.1.15,2013-03-18 04:04:00,
2013-03-17 21:14:00,55.8,52.0,29.96,SSW,202,0.0,0.0,87,0.00,,,0.00,Wunderground v.1.15,2013-03-18 04:14:00,
2013-03-17 21:24:00,55.8,52.0,29.97,SSW,197,1.0,1.0,87,0.00,,,0.00,Wunderground v.1.15,2013-03-18 04:24:00,
2013-03-17 21:34:00,55.7,51.9,29.97,SSW,209,0.0,0.0,87,0.00,,,0.00,Wunderground v.1.15,2013-03-18 04:34:00,
2013-03-17 21:44:00,55.6,51.8,29.97,South,186,0.0,0.0,87,0.00,,,0.00,Wunderground v.1.15,2013-03-18 04:44:00,
2013-03-17 21:54:00,55.6,52.1,29.98,SSE,153,0.0,0.0,88,0.00,,,0.00,Wunderground v.1.15,2013-03-18 04:54:00,
2013-03-17 22:04:00,55.5,51.7,29.98,SSE,161,0.0,0.0,87,0.00,,,0.00,Wunderground v.1.15,2013-03-18 05:04:00,
2013-03-17 22:14:00,55.4,51.9,29.98,South,190,0.0,0.0,88,0.00,,,0.00,Wunderground v.1.15,2013-03-18 05:14:00,
2013-03-17 22:24:00,55.3,51.8,29.98,SSE,156,0.0,0.0,88,0.00,,,0.00,Wunderground v.1.15,2013-03-18 05:24:00,
2013-03-17 22:34:00,55.3,51.8,29.98,SE,145,0.0,0.0,88,0.00,,,0.00,Wunderground v.1.15,2013-03-18 05:34:00,
2013-03-17 22:44:00,55.3,51.8,29.98,SSW,211,0.0,0.0,88,0.00,,,0.00,Wunderground v.1.15,2013-03-18 05:44:00,
2013-03-17 22:54:00,55.3,51.8,29.98,South,169,0.0,0.0,88,0.00,,,0.00,Wunderground v.1.15,2013-03-18 05:54:00,
2013-03-17 23:04:00,55.2,51.7,29.98,South,175,0.0,0.0,88,0.00,,,0.00,Wunderground v.1.15,2013-03-18 06:04:00,
2013-03-17 23:14:00,55.2,51.7,29.98,SE,142,0.0,0.0,88,0.00,,,0.00,Wunderground v.1.15,2013-03-18 06:14:00,
2013-03-17 23:24:00,55.3,52.1,29.99,SSE,159,0.0,0.0,89,0.00,,,0.00,Wunderground v.1.15,2013-03-18 06:24:00,
2013-03-17 23:34:00,55.3,51.8,29.99,SW,223,1.0,1.0,88,0.00,,,0.00,Wunderground v.1.15,2013-03-18 06:34:00,
2013-03-17 23:44:00,55.2,51.7,29.99,SE,128,0.0,0.0,88,0.00,,,0.00,Wunderground v.1.15,2013-03-18 06:44:00,
2013-03-17 23:54:00,55.2,52.0,29.99,South,169,0.0,0.0,89,0.00,,,0.00,Wunderground v.1.15,2013-03-18 06:54:00,